Location: Alfortville
(48.8058°N, 2.4204°E)
Time: 05:09:55
(UTC+00:00)

NOSS 2 (A) - Visible Passes

Search period start: 21 May 2022 00:00
Search period end: 31 May 2022 00:00
Orbit: 427 x 1385 km, 63.3° (Epoch: 09 May)

Date Brightness Start Highest point End Pass type
(mag) Time Alt. Az. Time Alt. Az. Time Alt. Az.
21 May 6.6 20:21:49 10° WNW 20:24:45 25° WSW 20:27:31 10° S visible
22 May 7.3 20:26:20 10° WNW 20:28:36 17° WSW 20:30:48 10° SSW visible
23 May 7.7 20:31:37 10° W 20:32:26 11° WSW 20:33:15 10° SW visible
